weather.gov     
National Weather Service

Terminal Aerodrome Forecast
NWS Homepage
This page is being discontinued on March 12, 2014.
The same data is available at this site. Please update your bookmarks.
Thank you, and we apologize for the inconvenience.
Please send an email to SR-SRH.Webmaster@noaa.gov with any concerns.


Current Version
Previous Version:    01  02  03  04  05  06  07  08  09  10  11  12  13  14  15  16  17  18  19  
[Printable]
456
FTUS41 KCLE 301100
TAFERI
TAF
KERI 301126Z 3012/3112 30006KT P6SM SCT025 OVC050
      TEMPO 3012/3016 5SM -SHRA BKN025
     FM301800 30005KT P6SM BKN035 OVC200
     FM310200 VRB03KT P6SM OVC100
     FM310600 19006KT P6SM SCT035 OVC050=


U.S. Dept. of Commerce
NOAA National Weather Service
1325 East West Highway
Silver Spring, MD 20910
E-mail: w-nws.webmaster@noaa.gov
Page last modified: May 16, 2007
NATIONAL WEATHER SERVICE: for Safety, for Work, for Fun - FOR LIFE